{"data":{"norad_id":62902,"intl_designator":"2025-026A","name":"COSMOS 2581","alt_names":[],"object_type":"PAYLOAD","status":"ACTIVE","operator":null,"country":"CIS","launch_date":"2025-02-05","launch_site_code":"PLMSC","launch_vehicle":null,"mission":null,"orbit_class":"UNKNOWN","rcs_meters":null,"size_class":null,"mass_kg":null,"dimensions":null,"purposes":[],"wikipedia_slug":null,"has_3d_model":false,"image_url":null,"decayed_at":null,"tle_current":{"epoch":"2026-09-22T17:36:40.854816Z","epoch_age_seconds":122737,"freshness":"FRESH","line1":"1 62902U 25026A   26265.73380619  .00000765  00000+0  67343-4 0  9996","line2":"2 62902  81.9981 334.9513 0011527  93.5314 266.7225 14.95183155 88790","mean_motion":14.95183155,"eccentricity":0.0011527,"inclination_deg":81.9981,"raan_deg":334.9513,"arg_perigee_deg":93.5314,"mean_anomaly_deg":266.7225,"bstar":6.7343e-5,"rev_number":8879,"period_min":96.309271221023,"perigee_km":573.78158881123,"apogee_km":589.82703751459,"semimajor_km":6959.9413131629,"source":"CELESTRAK","updated_at":"2026-09-23T09:00:21.691265Z"}}}